+ View the NASA Portal
+ Center for Near-Earth Object Studies
IMPORTANT:
The SSD Announcement email list is now available. Major changes are coming in the near future, including possible hostname and/or URL changes. To be notified of such changes, subscribe to this email list.
Please visit
this page
for more details.
Don't show this message again
JPL Small-Body Database Browser
Search:
[
help
]
452872 (2006 SF331)
Classification:
Main-belt Asteroid
SPK-ID:
2452872
[
Ephemeris
|
Orbit Diagram
|
Orbital Elements
|
Mission Design
|
Physical Parameters
|
Discovery Circumstances
]
[ show orbit diagram ]
Orbital Elements at Epoch 2458600.5 (2019-Apr-27.0) TDB
Reference:
JPL 10
(heliocentric ecliptic J2000)
Element
Value
Uncertainty (1-sigma)
Units
e
.1379772245729061
7.2885e-08
a
2.617933287234683
2.7242e-08
au
q
2.256718118145017
1.8187e-07
au
i
2.832210254148805
7.5096e-06
deg
node
355.2556635362538
0.00017775
deg
peri
333.8529036336841
0.00018199
deg
M
19.48780773775606
3.9191e-05
deg
t
p
2458516.747693666969
(2019-Feb-02.24769367)
0.00016804
TDB
period
1547.163779816881
4.24
2.415e-05
6.612e-08
d
yr
n
.2326838339264954
3.632e-09
deg/d
Q
2.979148456324349
3.1001e-08
au
Orbit Determination Parameters
# obs. used (total)
85
data-arc span
7236 days (19.81 yr)
first obs. used
2000-02-05
last obs. used
2019-11-28
planetary ephem.
DE431
SB-pert. ephem.
SB431-N16
condition code
0
norm. resid. RMS
.54248
source
ORB
producer
Otto Matic
solution date
2019-Dec-05 02:34:31
Additional Information
Earth MOID
= 1.24514 au
Jupiter MOID
= 2.34848 au
T_jup
= 3.391
[ show covariance matrix ]
[
Ephemeris
|
Orbit Diagram
|
Orbital Elements
|
Mission Design
|
Physical Parameters
|
Discovery Circumstances
]
Physical Parameter Table
Parameter
Symbol
Value
Units
Sigma
Reference
Notes
absolute magnitude
H
17.5
n/a
MPO368967
452872 (2006 SF331)
Discovered 2006-Sep-15 by Spacewatch at Kitt Peak
Reference:
Last Updated:
2016-01-04
Alternate Designations
2006 SF331
= 2006 SG199
[
Ephemeris
|
Orbit Diagram
|
Orbital Elements
|
Mission Design
|
Physical Parameters
|
Discovery Circumstances
]
2019-Dec-13 11:22 UT
(server date/time)
Site Manager:
Ryan S. Park
Webmaster
:
Alan B. Chamberlin